Terug naar catalogus

SCOUT A R/B

ActiefPO
NORAD 2967·ROCKET BODY·🇺🇸 United States

Gelanceerd Sep 25, 1967 vanaf Vandenberg Space Force Base

Loading…

Volgende Passages (komende 24 uur)

TLE

VersSource: Space-Track

Epoch: Sep 14, 2026, 14:09 UTC

1  2967U 67092B   26257.59026801  .00000095  00000-0  12614-3 0  9992
2  2967  89.2628   2.4140 0046107 200.1325 223.2938 13.52406356907014

Volg SCOUT A R/B in realtime met AllMySat

Download on the App Store